Refine Search
Year Filed

2000 ×

Court

Click on desired case number or refine your search to continue

Case TitleCourtCase NoChpDate FiledClosedDisposition
HERIDEL, INCPuerto Rico3:00-bk-08036707/11/200003/05/2007Discharge Not Applicable
UNITED ARTISTS THEATRE COMPANYDelaware1:00-bk-035141109/05/200012/30/2005Discharge Not Applicable
Attleboro Refining Co., Inc. and Handy & Harman Refining Group, Inc.Connecticut2:00-bk-208451103/28/200007/13/2007Discharge Not Applicable
National Entreprenerinal Centers, Inc.Maryland0:00-bk-158521105/24/200001/05/2001Dismissed for Other Reason
Dorsey Trailers, Inc.Alabama Middle1:00-bk-06792712/04/200005/20/2011
Outboard Marine CorporationIllinois Northern1:00-bk-37405712/22/2000
Harvest Communities, Inc and Official Committee Unsecured CreditorsTexas Southern4:00-bk-363011107/06/200005/25/2010Discharge Not Applicable
1st Mechanical, Inc., a Calif. Corp. and 1st Mechanical of Arizona, Inc. an Arizona corporaCalifornia Southern3:00-bk-007451101/26/200001/25/2001Dismissed for Other Reason 01/25/2001
1st Mechanical of Arizona, Inc., an Arizona Corp.California Southern3:00-bk-007481101/26/200001/25/2001Dismissed for Other Reason 01/25/2001
Peachtree Ridge Mining Company, Inc.Kentucky Eastern5:00-bk-513881106/16/2000
Harrison Holding CorporationKentucky Eastern5:00-bk-513911106/16/2000
Powderhorn Properties CompanyKentucky Eastern5:00-bk-513921106/16/2000
Millard Processing CorporationKentucky Eastern5:00-bk-513871106/16/2000
Quaker Transportation Company, Inc.Kentucky Eastern5:00-bk-513841106/16/2000
Quaker Coal Sales Company, Inc.Kentucky Eastern5:00-bk-513941106/16/2000
Powderhorn Coal CompanyKentucky Eastern5:00-bk-513931106/16/2000
Ohio, Pennsylvania and West Virginia Coal CompanyKentucky Eastern5:00-bk-513891106/16/2000
Harrison Mining CorporationKentucky Eastern5:00-bk-513901106/16/2000
Branham & Baker Coal Company, Inc.Kentucky Eastern5:00-bk-513851106/16/2000
Quaker Coal Company, Inc.Kentucky Eastern5:00-bk-513741106/16/200011/02/2011
KDM Development, IncGeorgia Northern1:00-bk-679641106/06/200004/04/2001Dismissed 08/16/2000
Asche Transfer, IncIllinois Northern3:00-bk-74123712/22/200001/13/2010Discharge Not Applicable 01/13/2010
Oakwood Village Nurse Care Center, Inc.Louisiana Western4:00-bk-504851103/09/200011/01/2004
IHS ACQUISITION XXVII, INC.Delaware1:00-bk-005211102/02/200005/14/2009Discharge Not Applicable 05/14/2009
Santa Clara Financial CorporationCalifornia Northern5:00-bk-529551106/05/200007/20/2000Dismissed for Other Reason
Montgomery Sales, Inc.Louisiana Western5:00-bk-13402712/12/200006/08/2001
JODA, Inc. and Togut, Segal & Segal LLPNew York Southern1:00-bk-109611103/09/200002/14/2002
AFFORDABLE RESIDENTIAL HOUSING, INC.Delaware1:00-bk-043331111/20/200007/07/2003
Inversiones & Ventas CorpNew York Eastern1:00-bk-188081108/14/200001/12/2001Discharge Not Applicable
Pittsburgh Corning CorporationPennsylvania Western2:00-bk-228761104/16/200005/02/2022Discharge Not Applicable
Fine Air Services Corp. and Agro Air Associates, Inc.Florida Southern1:00-bk-186711109/27/200002/22/2011Discharge Not Applicable
SMITH GATE [FLA.] THIS END UP, INC.Delaware1:00-bk-011981102/17/200003/18/2005
SMITH CORONA CORPORATIONDelaware1:00-bk-020651105/23/200002/13/2004
STONE & WEBSTER, INCORPORATEDDelaware1:00-bk-021421106/02/2000
Monmouth Ocean Contracting, Inc.New Jersey3:00-bk-62406712/06/200003/28/2007Discharge Not Applicable
Integrated Health Services, Inc.Delaware1:00-bk-003891102/02/200004/01/2019Discharge Not Applicable
MULTICARE AMC, INC.Delaware1:00-bk-024941106/22/200001/12/2006Discharge Not Applicable
A & D Inc.Alabama Middle2:00-bk-032371106/22/200001/18/2001Dismissed for Other Reason 12/05/2000
Alabama Disposal Solutions - Landfill, L.L.C.Alabama Middle2:00-bk-018221104/07/200006/05/2000Dismissed for Other Reason 05/16/2000
American Quality CNC Tool, Inc. a CorporationMichigan Eastern2:00-bk-49983707/03/200007/28/2004Discharge Not Applicable
U.S. Stair & Interiors, Inc.Michigan Eastern2:00-bk-43256703/03/200006/03/2003Discharge Not Applicable
Heritage Financial Network IncOhio Southern2:00-bk-60278708/23/200007/12/2018
Stage Stores Inc and Official Unsecured Creditors CommitteeTexas Southern4:00-bk-350781106/01/200001/06/2003Discharge Not Applicable
11431 Ltd CoTexas Western5:00-bk-53097708/10/200003/14/2002Discharge Not Applicable
ENBP, L.P. and ENBC CORP.Arizona2:00-bk-044471104/27/200012/20/2005Standard Discharge
A.R.V. Ergonomic Solutions, Inc.Ohio Northern1:00-bk-180071110/23/200009/03/2002Dismissed for Other Reason
Washington Media Group, Inc. and Frank TierraDistrict Of Columbia1:00-bk-01563708/18/200002/27/2001Dismissed for Other Reason
Armstrong World Industries, Inc. and ARMSTRONG WORLD INDUSTRIES, INC., ET AL.Delaware1:00-bk-044711112/06/200012/29/2009Discharge Not Applicable 12/29/2009
MuniCap.1999-II, L.L.C.Florida Southern9:00-bk-303681101/28/200007/10/2003Discharge Not Applicable
Angram, Inc. and Taxlink Financial, Inc.Florida Southern9:00-bk-303651101/28/200002/09/2012Discharge Not Applicable